Regional Weather Roundup
Issued by NWS

Home | Current Version | Previous Version | Text Only | Print | Product List | Glossary Off
Versions: 1 2 3 4 5 6 7 8 9 10 11 12 13 14 15 16 17 18 19 20 21 22 23 24 25 26 27 28 29 30 31 32 33 34 35 36 37 38 39 40 41 42 43 44 45 46 47 48 49 50

663
ASUS44 KMEG 260510
RWRTN
TENNESSEE HOURLY STATE WEATHER ROUNDUP
NATIONAL WEATHER SERVICE MEMPHIS TN
1200 AM CDT THU APR 26 2018

TNZ002-004-019-021-049-052-054-088>092-260600-
WEST TENNESSEE

CITY           SKY/WX    TMP DP  RH WIND       PRES   REMARKS
MEMPHIS INTL   RAIN      57  53  86 E7        29.88F
NWS MEMPHIS      N/A     55 N/A N/A MISG        N/A
JACKSON        FAIR      55  55 100 E3        29.92F FOG
DYERSBURG      LGT RAIN  55  54  96 E3        29.91F
SOMERVILLE       N/A     55  54  94 CALM      29.89F
COVINGTON      CLOUDY    55  54  94 CALM      29.91F
UNION CITY     MOCLDY    55  54  94 SE5       29.91F
BOLIVAR        CLOUDY    54  54 100 CALM      29.91F
PARIS          MOCLDY    55  52  88 CALM      29.93F
HUNTINGDON     CLOUDY    55  54  94 CALM      29.92F
LEXINGTON      CLOUDY    54  54 100 N3        29.93F
SAVANNAH       CLOUDY    55  55 100 N3        29.92F
$$

TNZ008-025-027-028-033-062-065-066-260600-
NORTH MIDDLE TENNESSEE

CITY           SKY/WX    TMP DP  RH WIND       PRES   REMARKS
NASHVILLE      CLOUDY    61  53  75 W3        29.92F
PORTLAND       PTCLDY    55  54  94 CALM      29.91F
CLARKSVILLE    CLOUDY    58  50  75 W6        29.92F
SMYRNA         CLOUDY    59  55  87 CALM      29.93S
COOKEVILLE     MOCLDY    54  52  94 CALM      29.92F
LIVINGSTON     CLEAR     54  50  87 CALM      29.92S
GALLATIN       CLOUDY    57  54  88 CALM      29.94F
CROSSVILLE     CLOUDY    52  47  83 CALM      29.95S
$$

TNZ061-075-076-078-094-096-097-260600-
SOUTH MIDDLE TENNESSEE

CITY           SKY/WX    TMP DP  RH WIND       PRES   REMARKS
LEWISBURG      CLOUDY    59  52  77 CALM      29.92F
FAYETTEVILLE   CLOUDY    59  54  82 CALM      29.90F
TULLAHOMA      CLOUDY    57  52  82 CALM      29.92S
WINCHESTER     CLOUDY    55  54  94 CALM      29.92F
MCMINNVILLE    CLOUDY    55  54  94 CALM      29.93S
COLUMBIA       CLOUDY    57  55  94 CALM      29.91F
SHELBYVILLE    CLOUDY    57  54  88 CALM      29.92S
$$

TNZ017-018-042-046-047-260600-
NORTHEAST TENNESSEE

CITY           SKY/WX    TMP DP  RH WIND       PRES   REMARKS
TRI CITIES     CLOUDY    56  51  84 CALM      29.91S
ELIZABETHTON   CLOUDY    54  52  94 CALM      29.91S
$$

TNZ012-013-036-069-073-074-260600-
CENTRAL EAST TENNESSEE

CITY           SKY/WX    TMP DP  RH WIND       PRES   REMARKS
KNOXVILLE      CLOUDY    56  52  86 NW3       29.93R
OAK RIDGE      FAIR      53  53 100 CALM      29.94F
DOWNTOWN KNOXV PTCLDY    54  54 100 CALM      29.94S
GATLINBURG     CLOUDY    55  54  94 CALM      29.93S
MORRISTOWN     PTCLDY    54  52  94 W6        29.93R
JACKSBORO      PTCLDY    52  50  93 CALM      29.97S
$$

TNZ083-085-099-260600-
SOUTHEAST TENNESSEE

CITY           SKY/WX    TMP DP  RH WIND       PRES   REMARKS
CHATTANOOGA    CLOUDY    57  52  83 CALM      29.93S
DAYTON         CLOUDY    55  54  94 CALM      29.93R
$$

SKY/WX REPORTED AS FAIR MEANS FEW OR NO CLOUDS BELOW
12 THOUSAND FEET.





USA.gov is the U.S. government's official web portal to all federal, state and local government web resources and services.